Location: Brompton
(51.4000°N, 0.5333°E)
Time: 18:41:24
(UTC+00:00)

Cosmos 1633 Rocket - Pass Details

Date: 11 May 2021
Orbit: 608 x 622 km, 82.5° (Epoch: 21 June)

Event Time Altitude Azimuth Distance (km) Brightness Sun altitude
Rises 20:31:45 0° 349° (N) 2,902 7.5 -7.7°
Reaches altitude 10° 20:33:59 10° 349° (N) 1,994 6.6 -7.9°
Maximum altitude 20:38:25 90° 307° (NW) 627 3.1 -8.4°
Drops below altitude 10° 20:42:50 10° 171° (S) 1,985 5.2 -8.9°
Enters shadow 20:43:40 - 171° (S) 2,324 5.5 -9.0°
